Bowling Green, Kentucky, United States (42101)
Lat: 36.99N, Lon: 86.44W
Wx Zone: KYZ071
Local Info
Past Weather Observations for Wednesday, October 15, 2014

NOTE: This archive is for the closest National Weather Service station to Bowling Green. Information may differ from the station used for current weather conditions.

Click here for Long-term Archive

Time Weather Temperature Dewpoint Humidity Pressure Winds Precip Visibility
23:55
Overcast
52°F / 11°C 52°F / 11°C 100% 29.83 in
(1010 mb)
SSW 5.8 mph
(SSW 9 kph)
- 10SM
23:35
Overcast
52°F / 11°C 52°F / 11°C 100% 29.83 in
(1010 mb)
SSW 5.8 mph
(SSW 9 kph)
- 10SM
23:15
Overcast
54°F / 12°C 54°F / 12°C 100% 29.83 in
(1010 mb)
SSW 3.5 mph
(SSW 6 kph)
- 10SM
22:55
Overcast
52°F / 11°C 52°F / 11°C 100% 29.8 in
(1009 mb)
SSW 4.6 mph
(SSW 7 kph)
- 10SM
22:35
Overcast
52°F / 11°C 52°F / 11°C 100% 29.83 in
(1010 mb)
W 3.5 mph
(W 6 kph)
- 7SM
22:15
Overcast
54°F / 12°C 54°F / 12°C 100% 29.83 in
(1010 mb)
W 4.6 mph
(W 7 kph)
- 10SM
21:55
Overcast
54°F / 12°C 54°F / 12°C 100% 29.83 in
(1010 mb)
W 5.8 mph
(W 9 kph)
- 10SM
21:35
Overcast
54°F / 12°C 54°F / 12°C 100% 29.83 in
(1010 mb)
W 4.6 mph
(W 7 kph)
- 10SM
21:15
Overcast
54°F / 12°C 54°F / 12°C 100% 29.83 in
(1010 mb)
W 5.8 mph
(W 9 kph)
- 10SM
20:55
Overcast
54°F / 12°C 54°F / 12°C 100% 29.83 in
(1010 mb)
SSW 4.6 mph
(SSW 7 kph)
- 10SM
20:35
Overcast
54°F / 12°C 54°F / 12°C 100% 29.83 in
(1010 mb)
SSW 5.8 mph
(SSW 9 kph)
- 10SM
20:15
Overcast
Light Rain
54°F / 12°C 54°F / 12°C 100% 29.83 in
(1010 mb)
W 4.6 mph
(W 7 kph)
- 10SM
19:55
Overcast
Light Rain
54°F / 12°C 54°F / 12°C 100% 29.83 in
(1010 mb)
SSW 4.6 mph
(SSW 7 kph)
0.01 in
(0.25 mm)
10SM
19:35
Overcast
Drizzle
54°F / 12°C 54°F / 12°C 100% 29.83 in
(1010 mb)
SSW 6.9 mph
(SSW 11 kph)
0.01 in
(0.25 mm)
10SM
19:15
Overcast
Light Rain
54°F / 12°C 54°F / 12°C 100% 29.83 in
(1010 mb)
SSW 6.9 mph
(SSW 11 kph)
- 10SM
18:55
Overcast
Light Rain
54°F / 12°C 54°F / 12°C 100% 29.83 in
(1010 mb)
SSW 8.1 mph
(SSW 13 kph)
0.05 in
(1.27 mm)
10SM
18:35
Overcast
Rain
54°F / 12°C 54°F / 12°C 100% 29.83 in
(1010 mb)
SSW 6.9 mph
(SSW 11 kph)
0.03 in
(0.76 mm)
10SM
18:15
Overcast
Light Rain
54°F / 12°C 54°F / 12°C 100% 29.83 in
(1010 mb)
SSW 6.9 mph
(SSW 11 kph)
0.02 in
(0.51 mm)
10SM
17:55
Overcast
Light Rain
54°F / 12°C 54°F / 12°C 100% 29.83 in
(1010 mb)
SSW 6.9 mph
(SSW 11 kph)
0.04 in
(1.02 mm)
10SM
17:35
Overcast
Light Rain
54°F / 12°C 54°F / 12°C 100% 29.83 in
(1010 mb)
SSW 8.1 mph
(SSW 13 kph)
0.02 in
(0.51 mm)
10SM
17:15
Overcast
Light Rain
54°F / 12°C 54°F / 12°C 100% 29.8 in
(1009 mb)
SSW 4.6 mph
(SSW 7 kph)
- 10SM
16:55
Overcast
Light Rain
54°F / 12°C 54°F / 12°C 100% 29.8 in
(1009 mb)
SSW 5.8 mph
(SSW 9 kph)
0.07 in
(1.78 mm)
10SM
16:35
Overcast
Light Rain
54°F / 12°C 54°F / 12°C 100% 29.8 in
(1009 mb)
SSW 6.9 mph
(SSW 11 kph)
0.06 in
(1.52 mm)
10SM
16:15
Overcast
Rain
54°F / 12°C 54°F / 12°C 100% 29.8 in
(1009 mb)
SSW 6.9 mph
(SSW 11 kph)
0.03 in
(0.76 mm)
7SM
15:55
Overcast
Light Rain
54°F / 12°C 54°F / 12°C 100% 29.8 in
(1009 mb)
SSW 9.2 mph
(SSW 15 kph)
0.05 in
(1.27 mm)
10SM
15:35
Overcast
Light Rain
55°F / 13°C 55°F / 13°C 100% 29.8 in
(1009 mb)
SSW 11.5 mph
(SSW 19 kph)
0.04 in
(1.02 mm)
10SM
15:15
Overcast
Light Rain
55°F / 13°C 55°F / 13°C 100% 29.8 in
(1009 mb)
SSW 8.1 mph
(SSW 13 kph)
0.02 in
(0.51 mm)
7SM
14:55
Overcast
Rain
55°F / 13°C 55°F / 13°C 100% 29.8 in
(1009 mb)
SSW 9.2 mph
(SSW 15 kph)
0.03 in
(0.76 mm)
5SM
14:35
Overcast
Rain
55°F / 13°C 55°F / 13°C 100% 29.77 in
(1008 mb)
SW 6.9 mph
(SW 11 kph)
0.01 in
(0.25 mm)
3SM
14:15
Overcast
Light Rain
55°F / 13°C 55°F / 13°C 100% 29.77 in
(1008 mb)
SSW 9.2 mph
(SSW 15 kph)
0.01 in
(0.25 mm)
4SM
13:55
Overcast
55°F / 13°C 55°F / 13°C 100% 29.77 in
(1008 mb)
SW 10.4 mph
(SW 17 kph)
- 10SM
13:35
Overcast
Rain
55°F / 13°C 54°F / 12°C 94% 29.77 in
(1008 mb)
SW 13.8 mph
(SW 22 kph)
- 3SM
13:15
Overcast
55°F / 13°C 54°F / 12°C 94% 29.77 in
(1008 mb)
SSW 10.4 mph
(SSW 17 kph)
- 10SM
12:55
Overcast
55°F / 13°C 55°F / 13°C 100% 29.77 in
(1008 mb)
SW 9.2 mph
(SW 15 kph)
- 10SM
12:35
Overcast
Light Rain
55°F / 13°C 55°F / 13°C 100% 29.77 in
(1008 mb)
SW 11.5 mph
(SW 19 kph)
- 5SM
12:15
Overcast
Light Rain
55°F / 13°C 55°F / 13°C 100% 29.77 in
(1008 mb)
SSW 10.4 mph
(SSW 17 kph)
- 5SM
11:55
Overcast
Rain
55°F / 13°C 54°F / 12°C 94% 29.77 in
(1008 mb)
SW 12.7 mph
(SW 20 kph)
- 7SM
11:35
Overcast
Rain
57°F / 14°C 55°F / 13°C 94% 29.8 in
(1009 mb)
SW 8.1 mph
(SW 13 kph)
- 7SM
11:15
Overcast
57°F / 14°C 54°F / 12°C 88% 29.8 in
(1009 mb)
SW 11.5 mph
(SW 19 kph)
- 10SM
10:55
Overcast
Light Rain
55°F / 13°C 55°F / 13°C 100% 29.8 in
(1009 mb)
SSW 10.4 mph
(SSW 17 kph)
0.01 in
(0.25 mm)
7SM
10:35
Overcast
Rain
55°F / 13°C 54°F / 12°C 94% 29.8 in
(1009 mb)
SW 10.4 mph
(SW 17 kph)
- 3SM
10:15
Overcast
Light Rain
55°F / 13°C 54°F / 12°C 94% 29.8 in
(1009 mb)
SW 9.2 mph
(SW 15 kph)
- 10SM
09:55
Overcast
Light Rain
55°F / 13°C 54°F / 12°C 94% 29.8 in
(1009 mb)
SW 9.2 mph
(SW 15 kph)
- 10SM
09:35
Overcast
Light Rain
55°F / 13°C 52°F / 11°C 88% 29.8 in
(1009 mb)
SW 11.5 mph
(SW 19 kph)
- 10SM
09:15
Overcast
Light Rain
55°F / 13°C 55°F / 13°C 100% 29.8 in
(1009 mb)
SW 10.4 mph
(SW 17 kph)
- 7SM
08:55
Overcast
Rain
55°F / 13°C 54°F / 12°C 94% 29.8 in
(1009 mb)
SW 11.5 mph
(SW 19 kph)
- 7SM
08:35
Overcast
Rain
55°F / 13°C 54°F / 12°C 94% 29.8 in
(1009 mb)
SW 8.1 mph
(SW 13 kph)
- 7SM
08:15
Overcast
Light Rain
54°F / 12°C 54°F / 12°C 100% 29.8 in
(1009 mb)
SW 9.2 mph
(SW 15 kph)
- 7SM
07:55
Overcast
Rain
54°F / 12°C 54°F / 12°C 100% 29.8 in
(1009 mb)
SW 8.1 mph
(SW 13 kph)
0.03 in
(0.76 mm)
10SM
07:35
Overcast
Light Rain
54°F / 12°C 54°F / 12°C 100% 29.8 in
(1009 mb)
SW 6.9 mph
(SW 11 kph)
0.02 in
(0.51 mm)
10SM
07:15
Overcast
Light Rain
54°F / 12°C 54°F / 12°C 100% 29.8 in
(1009 mb)
SW 5.8 mph
(SW 9 kph)
0.02 in
(0.51 mm)
10SM
06:55
Overcast
Light Rain
54°F / 12°C 54°F / 12°C 100% 29.8 in
(1009 mb)
SW 4.6 mph
(SW 7 kph)
0.02 in
(0.51 mm)
7SM
06:35
Overcast
Light Rain
54°F / 12°C 52°F / 11°C 94% 29.8 in
(1009 mb)
S 5.8 mph
(S 9 kph)
- 10SM
06:15
Overcast
Light Rain
54°F / 12°C 52°F / 11°C 94% 29.8 in
(1009 mb)
SSE 3.5 mph
(SSE 6 kph)
- 10SM
05:55
Overcast
54°F / 12°C 52°F / 11°C 94% 29.8 in
(1009 mb)
S 5.8 mph
(S 9 kph)
- 10SM
05:35
Overcast
54°F / 12°C 52°F / 11°C 94% 29.8 in
(1009 mb)
SW 5.8 mph
(SW 9 kph)
- 10SM
05:15
Overcast
54°F / 12°C 52°F / 11°C 94% 29.8 in
(1009 mb)
SSE 6.9 mph
(SSE 11 kph)
- 10SM
04:55
Overcast
54°F / 12°C 52°F / 11°C 94% 29.8 in
(1009 mb)
S 4.6 mph
(S 7 kph)
- 10SM
04:35
Overcast
54°F / 12°C 52°F / 11°C 94% 29.77 in
(1008 mb)
S 5.8 mph
(S 9 kph)
- 10SM
04:15
Overcast
54°F / 12°C 52°F / 11°C 94% 29.77 in
(1008 mb)
S 5.8 mph
(S 9 kph)
- 10SM
03:55
Overcast
54°F / 12°C 52°F / 11°C 94% 29.77 in
(1008 mb)
SSE 5.8 mph
(SSE 9 kph)
- 10SM
03:35
Overcast
54°F / 12°C 54°F / 12°C 100% 29.77 in
(1008 mb)
S 8.1 mph
(S 13 kph)
- 10SM
03:15
Overcast
54°F / 12°C 52°F / 11°C 94% 29.77 in
(1008 mb)
SW 5.8 mph
(SW 9 kph)
- 10SM
02:55
Overcast
54°F / 12°C 52°F / 11°C 94% 29.77 in
(1008 mb)
SW 6.9 mph
(SW 11 kph)
- 10SM
02:35
Overcast
Drizzle
54°F / 12°C 54°F / 12°C 100% 29.77 in
(1008 mb)
SW 5.8 mph
(SW 9 kph)
- 7SM
02:15
Overcast
55°F / 13°C 52°F / 11°C 88% 29.77 in
(1008 mb)
SSE 8.1 mph
(SSE 13 kph)
- 10SM
01:55
Overcast
55°F / 13°C 50°F / 10°C 82% 29.77 in
(1008 mb)
SSE 8.1 mph
(SSE 13 kph)
- 10SM
01:35
Overcast
55°F / 13°C 50°F / 10°C 82% 29.77 in
(1008 mb)
SW 9.2 mph
(SW 15 kph)
- 10SM
01:15
Overcast
55°F / 13°C 52°F / 11°C 88% 29.77 in
(1008 mb)
SSE 5.8 mph
(SSE 9 kph)
- 10SM
00:55
Overcast
55°F / 13°C 52°F / 11°C 88% 29.77 in
(1008 mb)
SW 8.1 mph
(SW 13 kph)
- 10SM
00:35
Overcast
55°F / 13°C 54°F / 12°C 94% 29.77 in
(1008 mb)
SW 6.9 mph
(SW 11 kph)
- 10SM
00:15
Overcast
55°F / 13°C 54°F / 12°C 94% 29.77 in
(1008 mb)
SSE 5.8 mph
(SSE 9 kph)
- 10SM
Time Weather Temperature Dewpoint Humidity Pressure Winds Precip Visibility


Weather for websites

WeatherForYou.com, LLC is not responsible for any damages or problems caused by this service. Current weather conditions are obtained from the closest station including government and personal stations which may have varying degrees of accuracy. Weather forecasts are derived from the NOAA NDFD. Like all things, this site belongs to Jesus Christ... He just trusts me to maintain it. If you have any questions or comments email webmaster@weatherforyou.com

Copyright © 2014, WeatherForYou.com LLC. All rights reserved.